Domov               UVHVVR             MKGP            O straneh              
ZDRAVSTVENO VARSTVO RASTLIN
  MREŽA AGROMET. POSTAJ
 ► PROGNOSTIČNA OBVESTILA
AGROMETEOROLOŠKI PODATKI -
ARSO
OBVLADOVANJE TVEGANJ ZARADI
NEUGODNIH VREMENSKIH RAZMER
  ► NARAVNE NESREČE
  ► SUŠA/MOČA
  ► NAMAKANJE
  ► ŽLED (gozdarstvo)
KARTOGRAFSKI PRIKAZI
SPLETNE POVEZAVE
PROJEKTI IN PUBLIKACIJE

AGROMETEOROLOŠKA MREŽA: VREMENSKE POSTAJE IN FENOLOŠKA OPAZOVANJA

Pregled podatkov za lokacijo Blanca, meteorološka postaja 27263

Pregled senzorjev na lokaciji

ID Ime Zadnja
vrednost
Datum
zadnje
spremembe
Tip
senzorja
2153 Relativna vlaga 2 m (% RH) 96,16 % RH 11.12.2017 10:03 Generic 0 - 100 %
2154 Omočenost lista (U) 9,2 U 11.12.2017 10:03 A730WET
2155 Padavine (mm) 0,4 mm 11.12.2017 10:04 Generic
2158 Temperatura 2 m (°C) 1,85 °C 11.12.2017 10:03 Generic -40 - +60 °C

Pregled podatkov zadnjih 24 ur

Zap.
št.
Datum in čas Blanca
Omočenost
lista
Padavine Relativna
vlaga
2
m
Temperatura
2
m
0 11.12.2017 10:00 9,6 0,4 96,26 1,69
1 11.12.2017 09:30 10 0,4 96,45 1,14
2 11.12.2017 09:00 10 0,2 96,57 0,77
3 11.12.2017 08:30 10 0,2 96,58 0,8
4 11.12.2017 08:00 10 0 96,66 0,61
5 11.12.2017 07:30 10 0 96,65 0,44
6 11.12.2017 07:00 10 0 96,64 0,43
7 11.12.2017 06:30 10 0 96,65 0,47
8 11.12.2017 06:00 10 0 96,62 0,23
9 11.12.2017 05:30 10 0 96,56 0,37
10 11.12.2017 05:00 10 0 96,57 0,32
11 11.12.2017 04:30 10 0 96,54 0,14
12 11.12.2017 04:00 10 0 96,46 0,18
13 11.12.2017 03:30 10 0 96,36 0,17
14 11.12.2017 03:00 10 0 96,26 0,29
15 11.12.2017 02:30 10 0 96,19 0,29
16 11.12.2017 02:00 10 0 96,02 0,23
17 11.12.2017 01:30 10 0 95,87 0,38
18 11.12.2017 01:00 10 0 95,77 0,44
19 11.12.2017 00:30 10 0 95,63 0,46
20 11.12.2017 00:00 10 0 95,34 0,37
21 10.12.2017 23:30 10 0 94,59 0,44
22 10.12.2017 23:00 10 0 94,23 0,55
23 10.12.2017 22:30 10 0 93,53 0,54
24 10.12.2017 22:00 3,97 0 91,49 0,83
25 10.12.2017 21:30 0 0 89,88 1,06
26 10.12.2017 21:00 0 0 89,39 1,23
27 10.12.2017 20:30 0 0 89 1,26
28 10.12.2017 20:00 1,07 0 87,57 1,45
29 10.12.2017 19:30 4,27 0 86,3 1,67
30 10.12.2017 19:00 0 0 84,57 1,7
31 10.12.2017 18:30 0 0 84,22 1,58
32 10.12.2017 18:00 0 0 84,57 1,31
33 10.12.2017 17:30 0 0 82,85 1,28
34 10.12.2017 17:00 0 0 82,07 1,06
35 10.12.2017 16:30 0 0 85,72 0,42
36 10.12.2017 16:00 0 0 89,5 -0,21
37 10.12.2017 15:30 0 0 85,94 0,16
38 10.12.2017 15:00 0 0 85,85 0,28
39 10.12.2017 14:30 0 0 85,49 -0,3
40 10.12.2017 14:00 0 0 82,18 0,23
41 10.12.2017 13:30 0 0 80,44 -0,27
42 10.12.2017 13:00 0 0 83,88 -1,34
43 10.12.2017 12:30 0 0 83,97 -1,52
44 10.12.2017 12:00 0 0 86,08 -1,99
45 10.12.2017 11:30 1,4 0 90,62 -2,45
46 10.12.2017 11:00 7,3 0,2 92,81 -2,39
© 2011 Ministrstvo za kmetijstvo, gozdarstvo in prehrano. Vse pravice pridržane.